Weather in Vysokoye

Russia / Ryazan Oblast     53°45′30″N   41°13′38″E
temp.,
°C
wind,
m/s
gust,
m/s
humid.,
%
clouds,
%
prec.,
mm/h
press.,
hPa
HPBL,
m
1 march, mon
mon100:00−11ne119780 0.1 102021
03:00−12n129775 0.1 102221
06:00−13nnw129775 0.0 102420
09:00−11nnw229572 0.0 102575
12:00−7w238953 0.0 1025298
15:00−6wsw359374 0.0 1024268
18:00−8wsw499580 0.0 1023206
21:00−3wsw5119484 0.1 1021631
2 march, tue
tue200:00−2wsw71294100 0.1 1018475
03:00−1wsw71394100 0.1 1015550
06:00+1wsw71393100 0.0 1012628
09:00+1w71396100 0.1 1010712
12:00+1w61299100 0.3 1008633
15:00+1wnw51097100 0.5 1007611
18:00−1wnw41092100 0.1 1007336
21:00−2nw5119186 0.1 1008400
3 march, wed
wed300:00−4nw399299 0.0 1009220
03:00−4wnw4119586 0.1 1009324
06:00−4nnw6129399 0.3 1010750
09:00−5nw7119098 0.4 1012835
12:00−4nw61087100 0.1 1014784
15:00−3nw5108097 0.1 1014976
18:00−4wnw4119242 0.0 1014433
21:00−2wnw5119369 0.1 1015630
4 march, thu
thu400:00−3w51295100 0.2 1014513
03:00−3w51194100 0.4 1012492
06:00−4wsw6129397 0.0 1010401
09:00−3wsw7148897 0.0 1008574
12:000wsw9178799 0.0 1005741
15:00+1wsw91683100 0.0 10031022
18:000wsw81780100 0.0 1000930
21:000wsw9169599 0.0 10001035
5 march, fri
fri500:000w71397100 0.4 1000853
03:00−4wnw499099 0.7 1004289
06:00−7nw359653 0.0 100792
09:00−7nw239455 0.0 1009117
12:00−4wnw128460 0.0 1011376
15:00−3wnw228678 0.0 1012426
18:00−6w129194 0.0 101321
21:00−7e119288 0.0 101421